PWSweather.com
Personal Weather Stations
Station Observations

ChardChardGB

Lat: 50.877408, Lon: -2.94964741

Elevation: 341

Station Type: WS3083

http://www.merriott-astro.co.uk/weather/index.htm

High Low Average
Temperature 63.9°F17.7°C 48.4°F9.1°C 57.9°F14.4°C
Dew Point 61.3°F16.3°C 48.1°F8.9°C 56.3°F13.5°C
Winds 11.9 mph 19.2 kmh 0.1 mph 0.2 kmh 6.0 mph S9.7 kmh S
Wind Gusts 18.3 mph29.5 kmh 0.7 mph1.1 kmh 9.0 mph14.5 kmh
Humidity 100% 74% 95%
Pressure 29.21 in989.2 mb 29.03 in983.1 mb -
Precipitation 0.70 in17.8 mm - -
Hour Temp Dew Point Humidity Winds Wind Gusts Pressure Precip Precip Rate Daily Precip Total
12:00 AM 57.4°F14.1°C 53.2°F11.8°C 86% 5.6 mph SW9.0 kmh SW 8.3 mph13.4 kmh 29.14 in986.8 mb 0.00 in0.0 mm 0.00 in0.0 mm 0.00 in0.0 mm
12:10 AM 57.2°F14.0°C 53.1°F11.7°C 86% 5.0 mph SSW8.0 kmh SSW 6.9 mph11.1 kmh 29.14 in986.8 mb 0.00 in0.0 mm 0.00 in0.0 mm 0.00 in0.0 mm
12:20 AM 57.0°F13.9°C 52.9°F11.6°C 86% 5.2 mph SSW8.4 kmh SSW 6.9 mph11.1 kmh 29.15 in987.1 mb 0.00 in0.0 mm 0.00 in0.0 mm 0.00 in0.0 mm
12:30 AM 56.8°F13.8°C 52.7°F11.5°C 86% 4.9 mph SW7.9 kmh SW 7.6 mph12.2 kmh 29.15 in987.1 mb 0.00 in0.0 mm 0.00 in0.0 mm 0.00 in0.0 mm
12:40 AM 56.3°F13.5°C 52.2°F11.2°C 86% 3.7 mph SSW6.0 kmh SSW 5.4 mph8.7 kmh 29.15 in987.1 mb 0.00 in0.0 mm 0.00 in0.0 mm 0.00 in0.0 mm
12:50 AM 56.1°F13.4°C 52.3°F11.3°C 87% 4.0 mph SW6.4 kmh SW 6.9 mph11.1 kmh 29.15 in987.1 mb 0.00 in0.0 mm 0.00 in0.0 mm 0.00 in0.0 mm
01:00 AM 55.8°F13.2°C 52.0°F11.1°C 87% 3.5 mph S5.6 kmh S 6.0 mph9.7 kmh 29.16 in987.5 mb 0.00 in0.0 mm 0.00 in0.0 mm 0.00 in0.0 mm
01:10 AM 55.6°F13.1°C 52.1°F11.2°C 88% 3.7 mph S6.0 kmh S 5.4 mph8.7 kmh 29.15 in987.1 mb 0.00 in0.0 mm 0.00 in0.0 mm 0.00 in0.0 mm
01:20 AM 55.2°F12.9°C 51.7°F10.9°C 88% 4.3 mph S6.9 kmh S 6.0 mph9.7 kmh 29.16 in987.5 mb 0.00 in0.0 mm 0.00 in0.0 mm 0.00 in0.0 mm
01:30 AM 55.0°F12.8°C 51.6°F10.9°C 88% 4.2 mph S6.8 kmh S 6.0 mph9.7 kmh 29.16 in987.5 mb 0.00 in0.0 mm 0.00 in0.0 mm 0.00 in0.0 mm
01:40 AM 54.9°F12.7°C 51.1°F10.6°C 87% 4.4 mph SSW7.1 kmh SSW 5.4 mph8.7 kmh 29.17 in987.8 mb 0.00 in0.0 mm 0.00 in0.0 mm 0.00 in0.0 mm
01:50 AM 54.7°F12.6°C 50.9°F10.5°C 87% 3.7 mph S6.0 kmh S 6.9 mph11.1 kmh 29.17 in987.8 mb 0.00 in0.0 mm 0.00 in0.0 mm 0.00 in0.0 mm
02:00 AM 54.7°F12.6°C 51.2°F10.7°C 88% 3.6 mph S5.8 kmh S 5.4 mph8.7 kmh 29.17 in987.8 mb 0.00 in0.0 mm 0.00 in0.0 mm 0.00 in0.0 mm
02:10 AM 54.5°F12.5°C 50.7°F10.4°C 87% 3.6 mph SSW5.8 kmh SSW 5.4 mph8.7 kmh 29.18 in988.1 mb 0.00 in0.0 mm 0.00 in0.0 mm 0.00 in0.0 mm
02:20 AM 54.1°F12.3°C 51.6°F10.9°C 91% 3.6 mph SSW5.8 kmh SSW 6.0 mph9.7 kmh 29.18 in988.1 mb 0.00 in0.0 mm 0.00 in0.0 mm 0.00 in0.0 mm
02:30 AM 54.0°F12.2°C 51.4°F10.8°C 91% 2.7 mph S4.3 kmh S 4.5 mph7.2 kmh 29.17 in987.8 mb 0.00 in0.0 mm 0.00 in0.0 mm 0.00 in0.0 mm
02:40 AM 53.6°F12.0°C 51.3°F10.7°C 92% 1.5 mph SSE2.4 kmh SSE 2.2 mph3.5 kmh 29.18 in988.1 mb 0.00 in0.0 mm 0.00 in0.0 mm 0.00 in0.0 mm
02:50 AM 53.1°F11.7°C 50.8°F10.4°C 92% 0.8 mph SSE1.3 kmh SSE 1.6 mph2.6 kmh 29.18 in988.1 mb 0.00 in0.0 mm 0.00 in0.0 mm 0.00 in0.0 mm
03:00 AM 52.7°F11.5°C 50.7°F10.4°C 93% 1.4 mph ESE2.3 kmh ESE 3.1 mph5.0 kmh 29.18 in988.1 mb 0.00 in0.0 mm 0.00 in0.0 mm 0.00 in0.0 mm
03:10 AM 52.2°F11.2°C 50.2°F10.1°C 93% 1.4 mph SSE2.3 kmh SSE 2.2 mph3.5 kmh 29.18 in988.1 mb 0.00 in0.0 mm 0.00 in0.0 mm 0.00 in0.0 mm
03:20 AM 51.8°F11.0°C 50.1°F10.1°C 94% 2.1 mph S3.4 kmh S 3.1 mph5.0 kmh 29.18 in988.1 mb 0.00 in0.0 mm 0.00 in0.0 mm 0.00 in0.0 mm
03:30 AM 51.1°F10.6°C 49.7°F9.8°C 95% 0.8 mph S1.3 kmh S 2.2 mph3.5 kmh 29.18 in988.1 mb 0.00 in0.0 mm 0.00 in0.0 mm 0.00 in0.0 mm
03:40 AM 50.5°F10.3°C 49.2°F9.6°C 95% 1.0 mph S1.6 kmh S 2.2 mph3.5 kmh 29.19 in988.5 mb 0.00 in0.0 mm 0.00 in0.0 mm 0.00 in0.0 mm
03:50 AM 50.4°F10.2°C 49.3°F9.6°C 96% 1.4 mph S2.3 kmh S 2.2 mph3.5 kmh 29.19 in988.5 mb 0.00 in0.0 mm 0.00 in0.0 mm 0.00 in0.0 mm
04:00 AM 50.2°F10.1°C 49.4°F9.7°C 97% 1.3 mph S2.1 kmh S 2.2 mph3.5 kmh 29.18 in988.1 mb 0.00 in0.0 mm 0.00 in0.0 mm 0.00 in0.0 mm
04:10 AM 50.2°F10.1°C 50.2°F10.1°C 100% 1.4 mph ESE2.3 kmh ESE 3.1 mph5.0 kmh 29.19 in988.5 mb 0.00 in0.0 mm 0.00 in0.0 mm 0.00 in0.0 mm
04:20 AM 50.2°F10.1°C 49.9°F9.9°C 99% 0.9 mph S1.4 kmh S 1.6 mph2.6 kmh 29.20 in988.8 mb 0.00 in0.0 mm 0.00 in0.0 mm 0.00 in0.0 mm
04:30 AM 50.2°F10.1°C 49.9°F9.9°C 99% 1.4 mph S2.3 kmh S 1.6 mph2.6 kmh 29.19 in988.5 mb 0.00 in0.0 mm 0.00 in0.0 mm 0.00 in0.0 mm
04:40 AM 49.6°F9.8°C 49.4°F9.7°C 99% 0.3 mph S0.5 kmh S 1.6 mph2.6 kmh 29.20 in988.8 mb 0.00 in0.0 mm 0.00 in0.0 mm 0.00 in0.0 mm
04:50 AM 49.5°F9.7°C 49.2°F9.6°C 99% 0.4 mph S0.6 kmh S 1.6 mph2.6 kmh 29.19 in988.5 mb 0.00 in0.0 mm 0.00 in0.0 mm 0.00 in0.0 mm
05:00 AM 49.1°F9.5°C 48.8°F9.3°C 99% 0.2 mph S0.3 kmh S 0.7 mph1.1 kmh 29.19 in988.5 mb 0.00 in0.0 mm 0.00 in0.0 mm 0.00 in0.0 mm
05:10 AM 48.9°F9.4°C 48.7°F9.3°C 99% 0.4 mph S0.6 kmh S 1.6 mph2.6 kmh 29.18 in988.1 mb 0.00 in0.0 mm 0.00 in0.0 mm 0.00 in0.0 mm
05:20 AM 49.1°F9.5°C 48.8°F9.3°C 99% 0.9 mph S1.4 kmh S 1.6 mph2.6 kmh 29.19 in988.5 mb 0.00 in0.0 mm 0.00 in0.0 mm 0.00 in0.0 mm
05:30 AM 48.6°F9.2°C 48.3°F9.1°C 99% 0.1 mph S0.2 kmh S 0.7 mph1.1 kmh 29.19 in988.5 mb 0.00 in0.0 mm 0.00 in0.0 mm 0.00 in0.0 mm
05:40 AM 48.4°F9.1°C 48.1°F8.9°C 99% 0.3 mph S0.5 kmh S 0.7 mph1.1 kmh 29.19 in988.5 mb 0.00 in0.0 mm 0.00 in0.0 mm 0.00 in0.0 mm
05:50 AM 48.4°F9.1°C 48.1°F8.9°C 99% 0.3 mph S0.5 kmh S 1.6 mph2.6 kmh 29.20 in988.8 mb 0.00 in0.0 mm 0.00 in0.0 mm 0.00 in0.0 mm
06:00 AM 48.6°F9.2°C 48.3°F9.1°C 99% 0.2 mph S0.3 kmh S 1.6 mph2.6 kmh 29.19 in988.5 mb 0.00 in0.0 mm 0.00 in0.0 mm 0.00 in0.0 mm
06:10 AM 48.7°F9.3°C 48.5°F9.2°C 99% 0.2 mph S0.3 kmh S 0.7 mph1.1 kmh 29.19 in988.5 mb 0.00 in0.0 mm 0.00 in0.0 mm 0.00 in0.0 mm
06:20 AM 48.9°F9.4°C 48.7°F9.3°C 99% 0.2 mph S0.3 kmh S 0.7 mph1.1 kmh 29.19 in988.5 mb 0.00 in0.0 mm 0.00 in0.0 mm 0.00 in0.0 mm
06:30 AM 49.3°F9.6°C 49.0°F9.4°C 99% 1.1 mph S1.8 kmh S 3.1 mph5.0 kmh 29.20 in988.8 mb 0.00 in0.0 mm 0.00 in0.0 mm 0.00 in0.0 mm
06:40 AM 49.8°F9.9°C 49.6°F9.8°C 99% 2.5 mph S4.0 kmh S 3.1 mph5.0 kmh 29.20 in988.8 mb 0.00 in0.0 mm 0.00 in0.0 mm 0.00 in0.0 mm
06:50 AM 50.4°F10.2°C 50.1°F10.1°C 99% 0.7 mph S1.1 kmh S 2.2 mph3.5 kmh 29.20 in988.8 mb 0.00 in0.0 mm 0.00 in0.0 mm 0.00 in0.0 mm
07:00 AM 52.0°F11.1°C 51.7°F10.9°C 99% 0.6 mph S1.0 kmh S 1.6 mph2.6 kmh 29.20 in988.8 mb 0.00 in0.0 mm 0.00 in0.0 mm 0.00 in0.0 mm
07:10 AM 53.2°F11.8°C 53.0°F11.7°C 99% 0.6 mph S1.0 kmh S 1.6 mph2.6 kmh 29.20 in988.8 mb 0.00 in0.0 mm 0.00 in0.0 mm 0.00 in0.0 mm
07:20 AM 55.0°F12.8°C 54.8°F12.7°C 99% 0.4 mph S0.6 kmh S 1.6 mph2.6 kmh 29.19 in988.5 mb 0.00 in0.0 mm 0.00 in0.0 mm 0.00 in0.0 mm
07:30 AM 57.2°F14.0°C 56.9°F13.8°C 99% 0.9 mph SE1.4 kmh SE 2.2 mph3.5 kmh 29.20 in988.8 mb 0.00 in0.0 mm 0.00 in0.0 mm 0.00 in0.0 mm
07:40 AM 55.8°F13.2°C 54.6°F12.6°C 96% 1.8 mph SSW2.9 kmh SSW 3.8 mph6.1 kmh 29.19 in988.5 mb 0.00 in0.0 mm 0.00 in0.0 mm 0.00 in0.0 mm
07:50 AM 55.8°F13.2°C 53.8°F12.1°C 93% 2.2 mph S3.5 kmh S 3.8 mph6.1 kmh 29.20 in988.8 mb 0.00 in0.0 mm 0.00 in0.0 mm 0.00 in0.0 mm
08:00 AM 58.5°F14.7°C 55.9°F13.3°C 91% 2.4 mph S3.9 kmh S 4.5 mph7.2 kmh 29.20 in988.8 mb 0.00 in0.0 mm 0.00 in0.0 mm 0.00 in0.0 mm
08:10 AM 59.5°F15.3°C 55.7°F13.2°C 87% 2.8 mph SSW4.5 kmh SSW 5.4 mph8.7 kmh 29.20 in988.8 mb 0.00 in0.0 mm 0.00 in0.0 mm 0.00 in0.0 mm
08:20 AM 59.9°F15.5°C 55.4°F13.0°C 85% 3.3 mph S5.3 kmh S 5.4 mph8.7 kmh 29.21 in989.2 mb 0.00 in0.0 mm 0.00 in0.0 mm 0.00 in0.0 mm
08:30 AM 60.8°F16.0°C 55.9°F13.3°C 84% 5.0 mph S8.0 kmh S 6.9 mph11.1 kmh 29.21 in989.2 mb 0.00 in0.0 mm 0.00 in0.0 mm 0.00 in0.0 mm
08:40 AM 62.8°F17.1°C 57.2°F14.0°C 82% 4.3 mph S6.9 kmh S 8.3 mph13.4 kmh 29.20 in988.8 mb 0.00 in0.0 mm 0.00 in0.0 mm 0.00 in0.0 mm
08:50 AM 62.6°F17.0°C 56.0°F13.3°C 79% 5.6 mph S9.0 kmh S 6.9 mph11.1 kmh 29.20 in988.8 mb 0.00 in0.0 mm 0.00 in0.0 mm 0.00 in0.0 mm
09:00 AM 61.0°F16.1°C 54.8°F12.7°C 80% 7.7 mph S12.4 kmh S 14.5 mph23.3 kmh 29.20 in988.8 mb 0.00 in0.0 mm 0.00 in0.0 mm 0.00 in0.0 mm
09:10 AM 61.7°F16.5°C 55.1°F12.8°C 79% 8.9 mph S14.3 kmh S 11.4 mph18.3 kmh 29.21 in989.2 mb 0.00 in0.0 mm 0.00 in0.0 mm 0.00 in0.0 mm
09:20 AM 62.2°F16.8°C 56.0°F13.3°C 80% 8.1 mph S13.0 kmh S 10.7 mph17.2 kmh 29.20 in988.8 mb 0.00 in0.0 mm 0.00 in0.0 mm 0.00 in0.0 mm
09:30 AM 63.9°F17.7°C 55.4°F13.0°C 74% 7.7 mph S12.4 kmh S 13.0 mph20.9 kmh 29.20 in988.8 mb 0.00 in0.0 mm 0.00 in0.0 mm 0.00 in0.0 mm
09:40 AM 63.1°F17.3°C 55.1°F12.8°C 75% 9.9 mph SSW15.9 kmh SSW 13.0 mph20.9 kmh 29.20 in988.8 mb 0.00 in0.0 mm 0.00 in0.0 mm 0.00 in0.0 mm
09:50 AM 62.2°F16.8°C 53.9°F12.2°C 74% 11.6 mph S18.7 kmh S 15.9 mph25.6 kmh 29.20 in988.8 mb 0.00 in0.0 mm 0.00 in0.0 mm 0.00 in0.0 mm
10:00 AM 61.9°F16.6°C 55.0°F12.8°C 78% 7.5 mph S12.1 kmh S 12.1 mph19.5 kmh 29.19 in988.5 mb 0.00 in0.0 mm 0.00 in0.0 mm 0.00 in0.0 mm
10:10 AM 61.9°F16.6°C 55.7°F13.2°C 80% 6.6 mph SSW10.6 kmh SSW 9.2 mph14.8 kmh 29.19 in988.5 mb 0.00 in0.0 mm 0.00 in0.0 mm 0.00 in0.0 mm
10:20 AM 61.7°F16.5°C 55.5°F13.1°C 80% 7.3 mph S11.7 kmh S 10.7 mph17.2 kmh 29.18 in988.1 mb 0.00 in0.0 mm 0.00 in0.0 mm 0.00 in0.0 mm
10:30 AM 61.5°F16.4°C 55.6°F13.1°C 81% 6.5 mph SSW10.5 kmh SSW 11.4 mph18.3 kmh 29.17 in987.8 mb 0.00 in0.0 mm 0.00 in0.0 mm 0.00 in0.0 mm
10:40 AM 61.5°F16.4°C 56.0°F13.3°C 82% 6.9 mph S11.1 kmh S 9.8 mph15.8 kmh 29.18 in988.1 mb 0.00 in0.0 mm 0.00 in0.0 mm 0.00 in0.0 mm
10:50 AM 61.3°F16.3°C 56.5°F13.6°C 84% 6.9 mph SSE11.1 kmh SSE 11.4 mph18.3 kmh 29.17 in987.8 mb 0.00 in0.0 mm 0.00 in0.0 mm 0.00 in0.0 mm
11:00 AM 60.6°F15.9°C 56.7°F13.7°C 87% 6.6 mph SW10.6 kmh SW 9.8 mph15.8 kmh 29.17 in987.8 mb 0.01 in0.3 mm 0.01 in0.3 mm 0.01 in0.3 mm
11:10 AM 59.7°F15.4°C 56.2°F13.4°C 88% 7.8 mph SSW12.6 kmh SSW 11.4 mph18.3 kmh 29.17 in987.8 mb 0.02 in0.5 mm 0.06 in1.5 mm 0.02 in0.5 mm
11:20 AM 59.7°F15.4°C 57.1°F13.9°C 91% 9.0 mph S14.5 kmh S 14.5 mph23.3 kmh 29.17 in987.8 mb 0.02 in0.5 mm 0.00 in0.0 mm 0.02 in0.5 mm
11:30 AM 59.7°F15.4°C 57.4°F14.1°C 92% 9.9 mph S15.9 kmh S 15.2 mph24.5 kmh 29.17 in987.8 mb 0.04 in1.0 mm 0.12 in3.0 mm 0.04 in1.0 mm
11:40 AM 59.7°F15.4°C 57.1°F13.9°C 91% 9.1 mph S14.6 kmh S 11.4 mph18.3 kmh 29.16 in987.5 mb 0.04 in1.0 mm 0.00 in0.0 mm 0.04 in1.0 mm
11:50 AM 59.9°F15.5°C 57.6°F14.2°C 92% 6.9 mph SSW11.1 kmh SSW 11.4 mph18.3 kmh 29.16 in987.5 mb 0.04 in1.0 mm 0.00 in0.0 mm 0.04 in1.0 mm
12:00 PM 59.9°F15.5°C 57.6°F14.2°C 92% 6.3 mph S10.1 kmh S 9.2 mph14.8 kmh 29.16 in987.5 mb 0.02 in0.5 mm 0.00 in0.0 mm 0.04 in1.0 mm
12:10 PM 59.5°F15.3°C 56.9°F13.8°C 91% 8.2 mph SSE13.2 kmh SSE 13.6 mph21.9 kmh 29.16 in987.5 mb 0.04 in1.0 mm 0.12 in3.0 mm 0.06 in1.5 mm
12:20 PM 59.0°F15.0°C 56.7°F13.7°C 92% 6.3 mph S10.1 kmh S 11.4 mph18.3 kmh 29.15 in987.1 mb 0.08 in2.0 mm 0.24 in6.1 mm 0.11 in2.8 mm
12:30 PM 58.5°F14.7°C 56.8°F13.8°C 94% 6.0 mph SW9.7 kmh SW 9.8 mph15.8 kmh 29.15 in987.1 mb 0.12 in3.0 mm 0.24 in6.1 mm 0.15 in3.8 mm
12:40 PM 58.5°F14.7°C 57.3°F14.1°C 96% 6.6 mph SSE10.6 kmh SSE 10.7 mph17.2 kmh 29.14 in986.8 mb 0.14 in3.6 mm 0.12 in3.0 mm 0.18 in4.6 mm
12:50 PM 58.5°F14.7°C 57.6°F14.2°C 97% 6.6 mph S10.6 kmh S 9.2 mph14.8 kmh 29.14 in986.8 mb 0.15 in3.8 mm 0.06 in1.5 mm 0.19 in4.8 mm
01:00 PM 58.6°F14.8°C 58.4°F14.7°C 99% 9.1 mph SW14.6 kmh SW 11.4 mph18.3 kmh 29.14 in986.8 mb 0.15 in3.8 mm 0.00 in0.0 mm 0.19 in4.8 mm
01:10 PM 59.0°F15.0°C 58.7°F14.8°C 99% 9.1 mph SSE14.6 kmh SSE 18.3 mph29.5 kmh 29.14 in986.8 mb 0.13 in3.3 mm 0.00 in0.0 mm 0.19 in4.8 mm
01:20 PM 59.2°F15.1°C 59.2°F15.1°C 100% 10.9 mph SSW17.5 kmh SSW 13.0 mph20.9 kmh 29.13 in986.5 mb 0.11 in2.8 mm 0.00 in0.0 mm 0.21 in5.3 mm
01:30 PM 59.4°F15.2°C 59.1°F15.1°C 99% 10.6 mph WSW17.1 kmh WSW 15.2 mph24.5 kmh 29.13 in986.5 mb 0.07 in1.8 mm 0.00 in0.0 mm 0.22 in5.6 mm
01:40 PM 59.4°F15.2°C 59.4°F15.2°C 100% 9.1 mph S14.6 kmh S 12.1 mph19.5 kmh 29.12 in986.1 mb 0.06 in1.5 mm 0.00 in0.0 mm 0.24 in6.1 mm
01:50 PM 59.0°F15.0°C 59.0°F15.0°C 100% 9.7 mph SW15.6 kmh SW 13.0 mph20.9 kmh 29.12 in986.1 mb 0.06 in1.5 mm 0.00 in0.0 mm 0.25 in6.4 mm
02:00 PM 59.0°F15.0°C 59.0°F15.0°C 100% 9.2 mph S14.8 kmh S 13.0 mph20.9 kmh 29.11 in985.8 mb 0.07 in1.8 mm 0.01 in0.3 mm 0.26 in6.6 mm
02:10 PM 59.0°F15.0°C 58.7°F14.8°C 99% 11.9 mph SSW19.2 kmh SSW 16.8 mph27.0 kmh 29.11 in985.8 mb 0.08 in2.0 mm 0.06 in1.5 mm 0.27 in6.9 mm
02:20 PM 59.4°F15.2°C 59.1°F15.1°C 99% 11.0 mph S17.7 kmh S 15.2 mph24.5 kmh 29.11 in985.8 mb 0.08 in2.0 mm 0.00 in0.0 mm 0.30 in7.6 mm
02:30 PM 59.5°F15.3°C 59.3°F15.2°C 99% 11.8 mph SSW19.0 kmh SSW 16.8 mph27.0 kmh 29.11 in985.8 mb 0.09 in2.3 mm 0.06 in1.5 mm 0.33 in8.4 mm
02:40 PM 59.4°F15.2°C 59.1°F15.1°C 99% 8.5 mph S13.7 kmh S 12.1 mph19.5 kmh 29.10 in985.4 mb 0.12 in3.0 mm 0.18 in4.6 mm 0.35 in8.9 mm
02:50 PM 59.4°F15.2°C 59.1°F15.1°C 99% 9.2 mph S14.8 kmh S 12.1 mph19.5 kmh 29.10 in985.4 mb 0.12 in3.0 mm 0.00 in0.0 mm 0.38 in9.7 mm
03:00 PM 59.4°F15.2°C 59.1°F15.1°C 99% 9.9 mph S15.9 kmh S 15.9 mph25.6 kmh 29.10 in985.4 mb 0.14 in3.6 mm 0.02 in0.5 mm 0.40 in10.2 mm
03:10 PM 59.4°F15.2°C 59.1°F15.1°C 99% 7.9 mph S12.7 kmh S 15.2 mph24.5 kmh 29.09 in985.1 mb 0.15 in3.8 mm 0.06 in1.5 mm 0.43 in10.9 mm
03:20 PM 59.4°F15.2°C 59.1°F15.1°C 99% 9.2 mph SSW14.8 kmh SSW 13.6 mph21.9 kmh 29.09 in985.1 mb 0.17 in4.3 mm 0.12 in3.0 mm 0.46 in11.7 mm
03:30 PM 59.4°F15.2°C 59.1°F15.1°C 99% 9.0 mph S14.5 kmh S 12.1 mph19.5 kmh 29.09 in985.1 mb 0.17 in4.3 mm 0.00 in0.0 mm 0.50 in12.7 mm
03:40 PM 59.5°F15.3°C 59.3°F15.2°C 99% 8.2 mph SSW13.2 kmh SSW 11.4 mph18.3 kmh 29.08 in984.8 mb 0.17 in4.3 mm 0.00 in0.0 mm 0.52 in13.2 mm
03:50 PM 59.7°F15.4°C 59.5°F15.3°C 99% 10.0 mph SW16.1 kmh SW 16.8 mph27.0 kmh 29.08 in984.8 mb 0.15 in3.8 mm 0.00 in0.0 mm 0.54 in13.7 mm
04:00 PM 59.9°F15.5°C 59.6°F15.3°C 99% 11.9 mph S19.2 kmh S 15.9 mph25.6 kmh 29.08 in984.8 mb 0.14 in3.6 mm 0.00 in0.0 mm 0.56 in14.2 mm
04:10 PM 59.9°F15.5°C 59.6°F15.3°C 99% 9.8 mph S15.8 kmh S 13.6 mph21.9 kmh 29.08 in984.8 mb 0.14 in3.6 mm 0.00 in0.0 mm 0.57 in14.5 mm
04:20 PM 60.1°F15.6°C 59.8°F15.4°C 99% 11.8 mph SE19.0 kmh SE 14.5 mph23.3 kmh 29.08 in984.8 mb 0.13 in3.3 mm 0.00 in0.0 mm 0.59 in15.0 mm
04:30 PM 60.1°F15.6°C 59.8°F15.4°C 99% 10.4 mph S16.7 kmh S 13.6 mph21.9 kmh 29.08 in984.8 mb 0.09 in2.3 mm 0.00 in0.0 mm 0.59 in15.0 mm
04:40 PM 60.4°F15.8°C 60.2°F15.7°C 99% 9.6 mph SW15.4 kmh SW 15.9 mph25.6 kmh 29.08 in984.8 mb 0.08 in2.0 mm 0.00 in0.0 mm 0.60 in15.2 mm
04:50 PM 60.6°F15.9°C 60.4°F15.8°C 99% 9.5 mph S15.3 kmh S 14.5 mph23.3 kmh 29.06 in984.1 mb 0.06 in1.5 mm 0.00 in0.0 mm 0.60 in15.2 mm
05:00 PM 60.6°F15.9°C 60.4°F15.8°C 99% 11.1 mph SW17.9 kmh SW 15.2 mph24.5 kmh 29.07 in984.4 mb 0.05 in1.3 mm 0.00 in0.0 mm 0.60 in15.2 mm
05:10 PM 60.8°F16.0°C 60.5°F15.8°C 99% 8.2 mph S13.2 kmh S 13.0 mph20.9 kmh 29.08 in984.8 mb 0.02 in0.5 mm 0.00 in0.0 mm 0.60 in15.2 mm
05:20 PM 60.8°F16.0°C 60.5°F15.8°C 99% 8.9 mph S14.3 kmh S 13.0 mph20.9 kmh 29.07 in984.4 mb 0.01 in0.3 mm 0.00 in0.0 mm 0.60 in15.2 mm
05:30 PM 61.0°F16.1°C 60.7°F15.9°C 99% 10.6 mph SSW17.1 kmh SSW 15.9 mph25.6 kmh 29.07 in984.4 mb 0.02 in0.5 mm 0.06 in1.5 mm 0.61 in15.5 mm
05:40 PM 61.0°F16.1°C 60.7°F15.9°C 99% 8.7 mph SW14.0 kmh SW 15.9 mph25.6 kmh 29.08 in984.8 mb 0.01 in0.3 mm 0.00 in0.0 mm 0.61 in15.5 mm
05:50 PM 61.0°F16.1°C 60.7°F15.9°C 99% 7.8 mph S12.6 kmh S 10.7 mph17.2 kmh 29.07 in984.4 mb 0.04 in1.0 mm 0.18 in4.6 mm 0.64 in16.3 mm
06:00 PM 61.2°F16.2°C 60.9°F16.1°C 99% 7.3 mph S11.7 kmh S 14.5 mph23.3 kmh 29.08 in984.8 mb 0.04 in1.0 mm 0.00 in0.0 mm 0.64 in16.3 mm
06:10 PM 61.3°F16.3°C 61.1°F16.2°C 99% 7.4 mph SSW11.9 kmh SSW 11.4 mph18.3 kmh 29.07 in984.4 mb 0.04 in1.0 mm 0.00 in0.0 mm 0.64 in16.3 mm
06:20 PM 61.3°F16.3°C 61.1°F16.2°C 99% 6.8 mph SSW10.9 kmh SSW 13.6 mph21.9 kmh 29.08 in984.8 mb 0.04 in1.0 mm 0.00 in0.0 mm 0.64 in16.3 mm
06:30 PM 61.3°F16.3°C 61.1°F16.2°C 99% 6.4 mph S10.3 kmh S 9.8 mph15.8 kmh 29.08 in984.8 mb 0.02 in0.5 mm 0.00 in0.0 mm 0.64 in16.3 mm
06:40 PM 61.3°F16.3°C 61.1°F16.2°C 99% 9.3 mph SW15.0 kmh SW 15.2 mph24.5 kmh 29.07 in984.4 mb 0.02 in0.5 mm 0.00 in0.0 mm 0.64 in16.3 mm
06:50 PM 61.3°F16.3°C 61.1°F16.2°C 99% 9.8 mph SSW15.8 kmh SSW 14.5 mph23.3 kmh 29.08 in984.8 mb 0.00 in0.0 mm 0.00 in0.0 mm 0.64 in16.3 mm
07:00 PM 61.3°F16.3°C 61.1°F16.2°C 99% 9.1 mph S14.6 kmh S 13.6 mph21.9 kmh 29.08 in984.8 mb 0.00 in0.0 mm 0.00 in0.0 mm 0.64 in16.3 mm
07:10 PM 61.2°F16.2°C 60.9°F16.1°C 99% 7.8 mph S12.6 kmh S 11.4 mph18.3 kmh 29.08 in984.8 mb 0.00 in0.0 mm 0.00 in0.0 mm 0.64 in16.3 mm
07:20 PM 61.2°F16.2°C 60.9°F16.1°C 99% 8.5 mph SSW13.7 kmh SSW 11.4 mph18.3 kmh 29.08 in984.8 mb 0.00 in0.0 mm 0.00 in0.0 mm 0.64 in16.3 mm
07:30 PM 61.2°F16.2°C 60.9°F16.1°C 99% 7.6 mph SW12.2 kmh SW 9.8 mph15.8 kmh 29.08 in984.8 mb 0.00 in0.0 mm 0.00 in0.0 mm 0.64 in16.3 mm
07:40 PM 61.3°F16.3°C 61.1°F16.2°C 99% 8.4 mph S13.5 kmh S 13.6 mph21.9 kmh 29.08 in984.8 mb 0.01 in0.3 mm 0.06 in1.5 mm 0.65 in16.5 mm
07:50 PM 61.3°F16.3°C 61.1°F16.2°C 99% 8.0 mph SSW12.9 kmh SSW 11.4 mph18.3 kmh 29.08 in984.8 mb 0.01 in0.3 mm 0.00 in0.0 mm 0.65 in16.5 mm
08:00 PM 61.3°F16.3°C 61.1°F16.2°C 99% 7.5 mph SSW12.1 kmh SSW 9.2 mph14.8 kmh 29.08 in984.8 mb 0.01 in0.3 mm 0.00 in0.0 mm 0.65 in16.5 mm
08:10 PM 61.0°F16.1°C 60.7°F15.9°C 99% 6.5 mph SSW10.5 kmh SSW 11.4 mph18.3 kmh 29.08 in984.8 mb 0.02 in0.5 mm 0.06 in1.5 mm 0.66 in16.8 mm
08:20 PM 61.0°F16.1°C 60.7°F15.9°C 99% 5.2 mph S8.4 kmh S 7.6 mph12.2 kmh 29.07 in984.4 mb 0.02 in0.5 mm 0.00 in0.0 mm 0.66 in16.8 mm
08:30 PM 61.2°F16.2°C 60.9°F16.1°C 99% 6.9 mph SSW11.1 kmh SSW 9.2 mph14.8 kmh 29.07 in984.4 mb 0.04 in1.0 mm 0.12 in3.0 mm 0.67 in17.0 mm
08:40 PM 61.3°F16.3°C 61.1°F16.2°C 99% 5.0 mph S8.0 kmh S 7.6 mph12.2 kmh 29.07 in984.4 mb 0.02 in0.5 mm 0.00 in0.0 mm 0.67 in17.0 mm
08:50 PM 61.5°F16.4°C 61.3°F16.3°C 99% 6.9 mph S11.1 kmh S 10.7 mph17.2 kmh 29.07 in984.4 mb 0.04 in1.0 mm 0.12 in3.0 mm 0.69 in17.5 mm
09:00 PM 61.5°F16.4°C 61.3°F16.3°C 99% 7.2 mph SW11.6 kmh SW 11.4 mph18.3 kmh 29.07 in984.4 mb 0.04 in1.0 mm 0.00 in0.0 mm 0.69 in17.5 mm
09:10 PM 61.5°F16.4°C 61.3°F16.3°C 99% 7.4 mph SSW11.9 kmh SSW 9.2 mph14.8 kmh 29.07 in984.4 mb 0.02 in0.5 mm 0.00 in0.0 mm 0.69 in17.5 mm
09:20 PM 61.5°F16.4°C 61.3°F16.3°C 99% 9.1 mph S14.6 kmh S 14.5 mph23.3 kmh 29.07 in984.4 mb 0.02 in0.5 mm 0.00 in0.0 mm 0.69 in17.5 mm
09:30 PM 61.5°F16.4°C 61.3°F16.3°C 99% 7.4 mph SW11.9 kmh SW 14.5 mph23.3 kmh 29.08 in984.8 mb 0.01 in0.3 mm 0.00 in0.0 mm 0.69 in17.5 mm
09:40 PM 61.3°F16.3°C 61.1°F16.2°C 99% 7.5 mph SW12.1 kmh SW 10.7 mph17.2 kmh 29.08 in984.8 mb 0.01 in0.3 mm 0.00 in0.0 mm 0.69 in17.5 mm
09:50 PM 61.3°F16.3°C 61.1°F16.2°C 99% 6.1 mph SW9.8 kmh SW 9.8 mph15.8 kmh 29.07 in984.4 mb 0.00 in0.0 mm 0.00 in0.0 mm 0.69 in17.5 mm
10:00 PM 61.3°F16.3°C 61.1°F16.2°C 99% 7.1 mph S11.4 kmh S 9.2 mph14.8 kmh 29.07 in984.4 mb 0.00 in0.0 mm 0.00 in0.0 mm 0.69 in17.5 mm
10:10 PM 61.3°F16.3°C 61.1°F16.2°C 99% 6.1 mph S9.8 kmh S 9.2 mph14.8 kmh 29.06 in984.1 mb 0.00 in0.0 mm 0.00 in0.0 mm 0.69 in17.5 mm
10:20 PM 61.3°F16.3°C 61.1°F16.2°C 99% 7.6 mph S12.2 kmh S 12.1 mph19.5 kmh 29.06 in984.1 mb 0.00 in0.0 mm 0.00 in0.0 mm 0.69 in17.5 mm
10:30 PM 61.3°F16.3°C 61.1°F16.2°C 99% 6.4 mph SSW10.3 kmh SSW 9.8 mph15.8 kmh 29.06 in984.1 mb 0.00 in0.0 mm 0.00 in0.0 mm 0.69 in17.5 mm
10:40 PM 61.3°F16.3°C 61.1°F16.2°C 99% 8.7 mph S14.0 kmh S 13.6 mph21.9 kmh 29.05 in983.7 mb 0.00 in0.0 mm 0.00 in0.0 mm 0.69 in17.5 mm
10:50 PM 61.3°F16.3°C 61.1°F16.2°C 99% 7.4 mph SSW11.9 kmh SSW 12.1 mph19.5 kmh 29.04 in983.4 mb 0.00 in0.0 mm 0.00 in0.0 mm 0.69 in17.5 mm
11:00 PM 61.3°F16.3°C 61.1°F16.2°C 99% 6.8 mph S10.9 kmh S 8.3 mph13.4 kmh 29.05 in983.7 mb 0.00 in0.0 mm 0.00 in0.0 mm 0.69 in17.5 mm
11:10 PM 61.3°F16.3°C 61.1°F16.2°C 99% 8.5 mph SSW13.7 kmh SSW 12.1 mph19.5 kmh 29.04 in983.4 mb 0.00 in0.0 mm 0.00 in0.0 mm 0.69 in17.5 mm
11:20 PM 61.3°F16.3°C 61.1°F16.2°C 99% 6.3 mph SSW10.1 kmh SSW 11.4 mph18.3 kmh 29.04 in983.4 mb 0.00 in0.0 mm 0.00 in0.0 mm 0.69 in17.5 mm
11:30 PM 61.3°F16.3°C 61.1°F16.2°C 99% 7.9 mph S12.7 kmh S 9.8 mph15.8 kmh 29.04 in983.4 mb 0.00 in0.0 mm 0.00 in0.0 mm 0.69 in17.5 mm
11:40 PM 61.5°F16.4°C 61.3°F16.3°C 99% 8.1 mph SSW13.0 kmh SSW 9.8 mph15.8 kmh 29.04 in983.4 mb 0.00 in0.0 mm 0.00 in0.0 mm 0.69 in17.5 mm
11:50 PM 61.5°F16.4°C 61.3°F16.3°C 99% 7.0 mph S11.3 kmh S 9.8 mph15.8 kmh 29.03 in983.1 mb 0.01 in0.3 mm 0.06 in1.5 mm 0.70 in17.8 mm